Hourly Weather Holschebinka

Today, 11 April, Sunday

Time Temperature Precipitation Wind Pressure Humidity
00:00 +3°C° 0.2 mm 2 mps 751 mmHg 91%
01:00 +3°C° 0.2 mm 2 mps 751 mmHg 92%
02:00 +3°C° 0 mm 1 mps 752 mmHg 91%
03:00 +3°C° 0 mm 1 mps 752 mmHg 92%
04:00 +3°C° 0 mm 1 mps 752 mmHg 92%
05:00 +3°C° 0 mm 1 mps 753 mmHg 93%
06:00 +4°C° 0 mm 1 mps 753 mmHg 86%
07:00 +5°C° 0 mm 1 mps 754 mmHg 79%
08:00 +7°C° 0 mm 1 mps 754 mmHg 72%
09:00 +7°C° 0 mm 1 mps 755 mmHg 68%
10:00 +8°C° 0 mm 1 mps 755 mmHg 64%
11:00 +8°C° 0 mm 2 mps 755 mmHg 60%
12:00 +8°C° 0 mm 2 mps 756 mmHg 63%
13:00 +9°C° 0 mm 2 mps 756 mmHg 65%
14:00 +9°C° 0 mm 2 mps 756 mmHg 67%
15:00 +9°C° 0 mm 2 mps 756 mmHg 70%
16:00 +10°C° 0 mm 1 mps 757 mmHg 73%
17:00 +9°C° 0 mm 1 mps 757 mmHg 75%
18:00 +9°C° 0 mm 1 mps 757 mmHg 80%
19:00 +8°C° 0 mm 1 mps 757 mmHg 84%
20:00 +6°C° 0 mm 2 mps 758 mmHg 88%
21:00 +6°C° 0 mm 2 mps 758 mmHg 89%
22:00 +7°C° 0 mm 2 mps 758 mmHg 89%
23:00 +7°C° 0 mm 2 mps 758 mmHg 89%

Tomorrow, 12 April, Monday

Time Temperature Precipitation Wind Pressure Humidity
00:00 +6°C° 0 mm 2 mps 758 mmHg 90%
01:00 +6°C° 0 mm 2 mps 758 mmHg 90%
02:00 +6°C° 0 mm 2 mps 758 mmHg 91%
03:00 +6°C° 0 mm 2 mps 758 mmHg 89%
04:00 +6°C° 0 mm 2 mps 758 mmHg 88%
05:00 +6°C° 0 mm 2 mps 758 mmHg 86%
06:00 +7°C° 0 mm 2 mps 758 mmHg 79%
07:00 +9°C° 0 mm 3 mps 758 mmHg 72%
08:00 +10°C° 0 mm 3 mps 758 mmHg 64%
09:00 +11°C° 0 mm 4 mps 758 mmHg 58%
10:00 +13°C° 0 mm 4 mps 758 mmHg 52%
11:00 +14°C° 0 mm 4 mps 758 mmHg 46%
12:00 +15°C° 0 mm 4 mps 758 mmHg 44%
13:00 +15°C° 0 mm 4 mps 757 mmHg 42%
14:00 +16°C° 0 mm 5 mps 757 mmHg 40%
15:00 +15°C° 0 mm 4 mps 756 mmHg 44%
16:00 +15°C° 0 mm 4 mps 756 mmHg 47%
17:00 +15°C° 0 mm 4 mps 755 mmHg 51%
18:00 +13°C° 0 mm 4 mps 755 mmHg 57%
19:00 +12°C° 0 mm 4 mps 755 mmHg 63%
20:00 +10°C° 0 mm 3 mps 755 mmHg 68%
21:00 +10°C° 0 mm 3 mps 755 mmHg 69%
22:00 +10°C° 0 mm 4 mps 754 mmHg 69%
23:00 +10°C° 0 mm 4 mps 754 mmHg 70%

Day after tomorrow, 13 April, Tuesday

Time Temperature Precipitation Wind Pressure Humidity
00:00 +9°C° 0.3 mm 3 mps 754 mmHg 76%
01:00 +9°C° 0.3 mm 3 mps 753 mmHg 82%
02:00 +9°C° 0.3 mm 3 mps 753 mmHg 87%
03:00 +8°C° 0.3 mm 3 mps 753 mmHg 89%
04:00 +8°C° 0.3 mm 3 mps 753 mmHg 91%
05:00 +8°C° 0.3 mm 2 mps 753 mmHg 93%
06:00 +9°C° 0.2 mm 2 mps 752 mmHg 91%
07:00 +9°C° 0.2 mm 2 mps 752 mmHg 90%
08:00 +10°C° 0.2 mm 2 mps 752 mmHg 88%
09:00 +10°C° 0 mm 2 mps 752 mmHg 85%
10:00 +12°C° 0 mm 2 mps 752 mmHg 81%
11:00 +13°C° 0 mm 2 mps 752 mmHg 77%
12:00 +14°C° 0 mm 2 mps 752 mmHg 74%
13:00 +15°C° 0 mm 2 mps 752 mmHg 70%
14:00 +16°C° 0 mm 2 mps 752 mmHg 66%
15:00 +16°C° 0 mm 2 mps 751 mmHg 68%
16:00 +16°C° 0 mm 2 mps 751 mmHg 69%
17:00 +16°C° 0 mm 2 mps 751 mmHg 71%
18:00 +15°C° 0.1 mm 2 mps 751 mmHg 76%
19:00 +14°C° 0.1 mm 2 mps 751 mmHg 82%
20:00 +13°C° 0.1 mm 2 mps 751 mmHg 88%
21:00 +12°C° 0.3 mm 1 mps 751 mmHg 90%
22:00 +12°C° 0.3 mm 1 mps 751 mmHg 92%
23:00 +12°C° 0.3 mm 1 mps 751 mmHg 95%

14 April, Wednesday

Time Temperature Precipitation Wind Pressure Humidity
00:00 +11°C° 0 mm 1 mps 750 mmHg 95%
01:00 +11°C° 0 mm 1 mps 750 mmHg 95%
02:00 +11°C° 0 mm 1 mps 750 mmHg 95%
03:00 +11°C° 0.3 mm 1 mps 750 mmHg 95%
04:00 +11°C° 0.3 mm 1 mps 750 mmHg 96%
05:00 +10°C° 0.3 mm 1 mps 750 mmHg 96%
06:00 +11°C° 0.1 mm 1 mps 750 mmHg 93%
07:00 +11°C° 0.1 mm 1 mps 750 mmHg 90%
08:00 +12°C° 0.1 mm 1 mps 750 mmHg 87%
09:00 +12°C° 0 mm 1 mps 750 mmHg 84%
10:00 +12°C° 0 mm 2 mps 750 mmHg 81%
11:00 +13°C° 0 mm 2 mps 750 mmHg 78%
12:00 +10°C° 0.1 mm 3 mps 750 mmHg 81%
13:00 +9°C° 0.1 mm 3 mps 750 mmHg 84%
14:00 +8°C° 0.1 mm 3 mps 750 mmHg 87%
15:00 +7°C° 0 mm 3 mps 750 mmHg 87%
16:00 +6°C° 0 mm 4 mps 750 mmHg 87%
17:00 +5°C° 0 mm 4 mps 750 mmHg 86%
18:00 +4°C° 0.5 mm 4 mps 751 mmHg 88%
19:00 +4°C° 0.5 mm 3 mps 751 mmHg 89%
20:00 +3°C° 0.5 mm 3 mps 751 mmHg 90%
21:00 +3°C° 0.5 mm 3 mps 751 mmHg 91%
22:00 +2°C° 0.5 mm 3 mps 751 mmHg 92%
23:00 +2°C° 0.5 mm 3 mps 752 mmHg 92%

15 April, Thursday

Time Temperature Precipitation Wind Pressure Humidity
00:00 +2°C° 0 mm 3 mps 752 mmHg 92%
01:00 +1°C° 0 mm 3 mps 752 mmHg 92%
02:00 +1°C° 0 mm 3 mps 752 mmHg 92%
03:00 +1°C° 0 mm 3 mps 752 mmHg 92%
04:00 +1°C° 0 mm 3 mps 752 mmHg 92%
05:00 +1°C° 0 mm 3 mps 752 mmHg 92%
06:00 +1°C° 0 mm 3 mps 752 mmHg 92%
07:00 +1°C° 0 mm 3 mps 752 mmHg 92%
08:00 +1°C° 0 mm 3 mps 752 mmHg 92%
09:00 +2°C° 0.3 mm 3 mps 752 mmHg 90%
10:00 +2°C° 0.3 mm 3 mps 752 mmHg 89%
11:00 +2°C° 0.3 mm 3 mps 753 mmHg 87%
12:00 +3°C° 0.1 mm 3 mps 753 mmHg 81%
13:00 +4°C° 0.1 mm 3 mps 753 mmHg 74%
14:00 +5°C° 0.1 mm 3 mps 753 mmHg 68%
15:00 +5°C° 0 mm 3 mps 753 mmHg 68%
16:00 +5°C° 0 mm 3 mps 753 mmHg 67%
17:00 +5°C° 0 mm 4 mps 753 mmHg 67%
18:00 +4°C° 0 mm 3 mps 754 mmHg 70%
19:00 +3°C° 0 mm 3 mps 754 mmHg 73%
20:00 +3°C° 0 mm 2 mps 755 mmHg 76%
21:00 +1°C° 0 mm 3 mps 755 mmHg 77%
22:00 +1°C° 0 mm 3 mps 756 mmHg 77%
23:00 0°C° 0 mm 3 mps 756 mmHg 77%

16 April, Friday

Time Temperature Precipitation Wind Pressure Humidity
00:00 0°C° 0 mm 3 mps 756 mmHg 79%
01:00 -1°C° 0 mm 3 mps 757 mmHg 81%
02:00 -1°C° 0 mm 3 mps 757 mmHg 83%
03:00 -1°C° 0 mm 3 mps 757 mmHg 85%
04:00 -2°C° 0 mm 3 mps 758 mmHg 86%
05:00 -2°C° 0 mm 3 mps 758 mmHg 87%
06:00 -1°C° 0 mm 3 mps 758 mmHg 79%
07:00 -1°C° 0 mm 4 mps 759 mmHg 71%
08:00 +1°C° 0 mm 4 mps 759 mmHg 63%
09:00 +3°C° 0 mm 4 mps 759 mmHg 55%
10:00 +4°C° 0 mm 4 mps 760 mmHg 48%
11:00 +5°C° 0 mm 4 mps 760 mmHg 40%
12:00 +5°C° 0 mm 4 mps 760 mmHg 38%
13:00 +6°C° 0 mm 4 mps 760 mmHg 37%
14:00 +6°C° 0 mm 4 mps 760 mmHg 36%
15:00 +6°C° 0 mm 4 mps 760 mmHg 38%
16:00 +7°C° 0 mm 3 mps 760 mmHg 40%
17:00 +7°C° 0 mm 3 mps 760 mmHg 42%
18:00 +4°C° 0 mm 3 mps 760 mmHg 50%
19:00 +3°C° 0 mm 2 mps 761 mmHg 57%
20:00 +2°C° 0 mm 2 mps 761 mmHg 65%
21:00 +1°C° 0 mm 2 mps 761 mmHg 67%
22:00 -1°C° 0 mm 2 mps 761 mmHg 69%
23:00 -1°C° 0 mm 2 mps 761 mmHg 71%
Show more